Location: Wildlife_Club
(35.6000°N, 81.4330°W)
Time: 16:49:36
(UTC-05:00)

Amateur Radio Satellites - All Passes

Search period start: 15 December 2017 16:19
Search period end: 16 December 2017 16:19
Location: Wildlife_Club, 35.6000°N, 81.4330°W

Satellite Date Start Highest point End Downlink Frequencies (MHz)
Time Altitude Azimuth
CUTE-I 15 Dec 16:27:09 16:28:08 10° 61° (ENE) 16:29:08 437.470
BEESAT 15 Dec 16:27:11 16:31:44 46° 288° (WNW) 16:36:16 436.000
ITAMSAT 1 15 Dec 16:30:35 16:34:35 22° 265° (W) 16:38:37 435.822/435.867
XW-2F 15 Dec 16:42:29 16:43:10 10° 67° (ENE) 16:43:52 145.980 - 146.000
RS-15 15 Dec 16:45:43 16:56:38 35° 317° (NW) 17:07:30 29.354- 29.394
XW-2C 15 Dec 16:56:41 16:59:16 18° 70° (ENE) 17:01:53 145.795 - 145.815
ITUPSAT 1 15 Dec 16:56:48 17:00:35 24° 292° (WNW) 17:04:22 437.325
HO-68 15 Dec 17:08:19 17:12:58 19° 59° (ENE) 17:17:36 435.675
DOVE 4 15 Dec 17:12:24 17:17:25 43° 261° (W) 17:22:20 437.250
nSIGHT-1 15 Dec 17:23:18 17:25:55 23° 33° (NNE) 17:28:33 .
CUBESAT XI-V 15 Dec 17:24:16 17:28:24 31° 289° (WNW) 17:32:30 437.345
LilacSat-2 15 Dec 17:33:05 17:36:49 59° 76° (ENE) 17:40:36 437.200
KKS-1 15 Dec 17:40:19 17:44:44 70° 102° (ESE) 17:49:08 437.445
XW-2D 15 Dec 17:45:57 17:49:43 85° 78° (ENE) 17:53:32 145.860 - 145.880
NUDT-PHONESAT 15 Dec 17:46:01 17:49:35 50° 75° (ENE) 17:53:11 437.300
CUTE 1.7 + AOD 2 15 Dec 17:50:45 17:53:54 21° 69° (ENE) 17:57:05 437.475
KAITUO 1B 15 Dec 17:51:30 17:55:11 65° 77° (ENE) 17:58:55 145.475/437.950
XW-2B 15 Dec 18:01:55 18:05:39 60° 260° (W) 18:09:26 145.730 - 145.750
CUTE-I 15 Dec 18:01:59 18:07:21 89° 258° (WSW) 18:12:45 437.470
ISS 15 Dec 18:08:35 18:11:46 45° 38° (NE) 18:14:55 437.550
PCSat 15 Dec 18:12:47 18:18:00 51° 111° (ESE) 18:23:13 145.827
XW-2F 15 Dec 18:13:12 18:16:48 44° 261° (W) 18:20:27 145.980 - 146.000
STARS 15 Dec 18:20:18 18:24:40 75° 102° (ESE) 18:29:00 437.465
O/OREOS (USA 219) 15 Dec 18:26:13 18:30:42 66° 68° (ENE) 18:35:08 437.305
XW-2C 15 Dec 18:30:05 18:33:14 25° 264° (W) 18:36:24 145.795 - 145.815
UWE-3 15 Dec 18:46:43 18:50:15 28° 72° (ENE) 18:53:46 435.000/436.395/437.385
CUBEBUG 2 15 Dec 18:48:43 18:52:51 57° 76° (ENE) 18:56:56 437.445
HO-68 15 Dec 18:52:40 18:59:52 78° 256° (WSW) 19:07:05 435.675
nSIGHT-1 15 Dec 18:59:16 19:02:08 30° 228° (SW) 19:04:59 .
SEEDS 15 Dec 19:00:00 19:04:12 82° 79° (ENE) 19:08:28 437.485
RS-15 15 Dec 19:08:27 19:14:33 15° 350° (N) 19:20:34 29.354- 29.394
ZACube-1 15 Dec 19:09:22 19:12:46 25° 71° (ENE) 19:16:10 437.345
AAUSAT CUBESAT 2 15 Dec 19:15:41 19:19:41 49° 74° (ENE) 19:23:44 437.432
CUTE 1.7 + AOD 2 15 Dec 19:25:53 19:29:31 28° 264° (W) 19:33:13 437.475
Oscar 11 15 Dec 19:26:59 19:30:25 24° 70° (ENE) 19:33:53 .
FO-29 15 Dec 19:32:38 19:36:20 16° 88° (E) 19:39:48 435.910
XW-2A 15 Dec 19:36:52 19:40:12 79° 261° (W) 19:43:33 145.665 - 145.685
AO-73 15 Dec 19:41:53 19:45:54 55° 75° (ENE) 19:49:57 145.935
ISS 15 Dec 19:46:12 19:47:56 14° 232° (SW) 19:49:39 437.550
BEESAT 3 15 Dec 19:48:10 19:52:06 71° 117° (ESE) 19:56:05 437.485
STRAND 1 15 Dec 19:49:46 19:54:52 71° 102° (ESE) 19:59:56 437.568
PCSat 15 Dec 19:57:37 20:01:40 21° 309° (NW) 20:05:43 145.827
DELFI C3 15 Dec 20:09:20 20:10:55 12° 67° (ENE) 20:12:29 145.870
UWE-3 15 Dec 20:23:43 20:26:41 19° 265° (W) 20:29:39 435.000/436.395/437.385
BEESAT 2 15 Dec 20:30:58 20:34:51 53° 115° (ESE) 20:38:48 435.950
ZACube-1 15 Dec 20:45:52 20:48:59 21° 265° (W) 20:52:07 437.345
HO-68 15 Dec 20:48:02 20:48:31 10° 271° (W) 20:49:00 435.675
AAUSAT CUBESAT 2 15 Dec 20:54:12 20:55:22 11° 269° (W) 20:56:32 437.432
FALCONSAT 3 15 Dec 20:56:49 20:59:31 19° 153° (SSE) 21:02:14 435.103
Oscar 11 15 Dec 21:02:54 21:06:25 24° 264° (W) 21:09:58 .
AO-85 15 Dec 21:07:49 21:11:08 28° 112° (ESE) 21:14:34 145.980
FO-29 15 Dec 21:15:26 21:22:09 68° 286° (WNW) 21:28:01 435.910
RS-15 15 Dec 21:25:39 21:34:01 21° 28° (NNE) 21:42:04 29.354- 29.394
BEESAT 3 15 Dec 21:29:11 21:30:05 11° 314° (NW) 21:30:58 437.485
STRAND 1 15 Dec 21:31:24 21:33:23 12° 297° (WNW) 21:35:23 437.568
Max Valier Satellite 15 Dec 21:36:13 21:39:51 77° 259° (W) 21:43:32 145.860
DELFI C3 15 Dec 21:41:24 21:45:12 43° 261° (W) 21:49:03 145.870
TIGRISAT 15 Dec 22:01:13 22:05:30 54° 100° (E) 22:09:53 435.000
EO-88 15 Dec 22:01:24 22:04:56 51° 260° (W) 22:08:31 145.990 - 145.960
UNISAT 6 15 Dec 22:04:48 22:09:10 67° 102° (ESE) 22:13:36 437.425
BEESAT 2 15 Dec 22:10:51 22:12:52 13° 312° (NW) 22:14:55 435.950
PRISM 15 Dec 22:21:36 22:24:59 24° 96° (E) 22:28:19 437.425
LO-87 15 Dec 22:28:18 22:31:26 30° 73° (ENE) 22:34:34 145.935 - 145.965
FALCONSAT 3 15 Dec 22:34:37 22:38:16 61° 166° (SSE) 22:41:53 435.103
AO-85 15 Dec 22:48:33 22:51:31 20° 310° (NW) 22:54:36 145.980
AIST 2D 15 Dec 22:58:41 23:01:32 22° 96° (E) 23:04:22 435.315
VELOX 1 15 Dec 23:14:28 23:16:10 12° 65° (ENE) 23:17:51 145.980
QB50P2 15 Dec 23:17:44 23:19:55 14° 93° (E) 23:22:06 145.880/145.840
ESTCUBE 1 15 Dec 23:19:59 23:24:29 76° 258° (WSW) 23:29:02 437.505/2401.250
RS-15 15 Dec 23:37:44 23:49:27 65° 56° (NE) 00:00:29 29.354- 29.394
TIGRISAT 15 Dec 23:40:04 23:41:43 12° 294° (WNW) 23:43:23 435.000
SPROUT 15 Dec 23:42:29 23:46:26 40° 73° (ENE) 23:50:26 437.525
NANOSAT C BR1 15 Dec 23:46:50 23:50:17 24° 96° (E) 23:53:41 145.865
PRISM 15 Dec 23:56:58 00:00:05 21° 291° (WNW) 00:03:10 437.425
EO-79 16 Dec 00:02:35 00:06:37 43° 99° (E) 00:10:38 145.935-145.965
LO-87 16 Dec 00:03:28 00:04:53 12° 267° (W) 00:06:18 145.935 - 145.965
FALCONSAT 3 16 Dec 00:13:37 00:17:18 90° 180° (S) 00:21:00 435.103
POLYITAN 1 16 Dec 00:25:48 00:30:02 85° 102° (ESE) 00:34:17 437.675
SO-50 16 Dec 00:28:04 00:32:45 72° 59° (ENE) 00:37:29 436.795
AIST 2D 16 Dec 00:32:10 00:34:30 17° 290° (WNW) 00:36:49 435.315
50 SAT 16 Dec 00:46:24 00:48:45 19° 72° (ENE) 00:51:08 437.505
VELOX 1 16 Dec 00:47:42 00:52:04 57° 259° (W) 00:56:28 145.980
QB50P2 16 Dec 00:51:52 00:55:50 40° 287° (WNW) 00:59:47 145.880/145.840
DUCHIFAT 1 16 Dec 00:54:36 00:58:42 57° 285° (WNW) 01:02:49 145.980
Gurwin Techsat 1B 16 Dec 01:05:31 01:08:40 16° 93° (E) 01:11:49 435.225
SPROUT 16 Dec 01:20:17 01:22:28 14° 267° (W) 01:24:39 437.525
UKube-1 16 Dec 01:20:40 01:24:39 38° 72° (ENE) 01:28:40 .
YUBILEINY 16 Dec 01:22:25 01:25:14 12° 76° (ENE) 01:28:02 435.215
NANOSAT C BR1 16 Dec 01:22:30 01:25:50 23° 290° (WNW) 01:29:11 145.865
BUGSAT 1 16 Dec 01:29:35 01:33:39 77° 103° (ESE) 01:37:43 437.445
DX 1 16 Dec 01:38:57 01:43:19 75° 257° (WSW) 01:47:43 434.975-435.025
EO-79 16 Dec 01:39:50 01:41:58 14° 293° (WNW) 01:44:05 145.935-145.965
Oscar 19 16 Dec 01:50:25 01:55:35 65° 102° (ESE) 02:00:45 437.125/150
RS-15 16 Dec 01:51:21 02:00:55 32° 256° (WSW) 02:10:09 29.354- 29.394
FALCONSAT 3 16 Dec 01:52:44 01:56:19 51° 196° (SSW) 01:59:53 435.103
BEESAT 16 Dec 01:55:16 01:57:37 14° 64° (ENE) 01:59:58 436.000
SO-50 16 Dec 02:11:41 02:12:36 11° 253° (WSW) 02:13:32 436.795
AO-91 16 Dec 02:17:51 02:21:10 48° 285° (WNW) 02:24:24 145.960
50 SAT 16 Dec 02:18:45 02:20:36 15° 265° (W) 02:22:28 437.505
ITUPSAT 1 16 Dec 02:22:46 02:26:41 26° 69° (ENE) 02:30:37 437.325
JUGNU 16 Dec 02:39:58 02:41:25 11° 166° (SSE) 02:42:51 437.505
Gurwin Techsat 1B 16 Dec 02:43:43 02:48:54 54° 287° (WNW) 02:54:03 435.225
CUBESAT XI-V 16 Dec 02:48:26 02:51:21 17° 66° (ENE) 02:54:15 437.345
MOZHAYETS 4 16 Dec 02:56:24 03:00:56 88° 246° (WSW) 03:05:31
UKube-1 16 Dec 02:58:12 03:00:46 15° 266° (W) 03:03:21 .
PCSat 16 Dec 03:04:04 03:08:22 23° 53° (NE) 03:12:38 145.827
ITAMSAT 1 16 Dec 03:07:12 03:10:24 16° 93° (E) 03:13:35 435.822/435.867
YUBILEINY 16 Dec 03:11:39 03:20:26 78° 93° (E) 03:29:17 435.215
BEESAT 16 Dec 03:30:13 03:34:52 56° 259° (W) 03:39:33 436.000
Oscar 19 16 Dec 03:31:41 03:34:18 14° 297° (WNW) 03:36:55 437.125/150
FALCONSAT 3 16 Dec 03:32:46 03:34:58 15° 210° (SSW) 03:37:08 435.103
AO-7 16 Dec 03:38:03 03:46:16 56° 103° (ESE) 03:54:25 .
M-CUBED/EXP-1 PRIME 16 Dec 03:56:18 04:00:40 58° 104° (ESE) 04:04:43 437.505
ITUPSAT 1 16 Dec 04:00:22 04:04:23 27° 263° (W) 04:08:26 437.325
BEESAT 3 16 Dec 04:08:20 04:10:53 16° 50° (NE) 04:13:25 437.485
CUBESAT XI-V 16 Dec 04:23:53 04:28:18 43° 261° (W) 04:32:46 437.345
JUGNU 16 Dec 04:26:06 04:29:37 16° 176° (S) 04:33:07 437.505
KKS-1 16 Dec 04:35:10 04:39:24 44° 73° (ENE) 04:43:38 437.445
ITAMSAT 1 16 Dec 04:45:06 04:50:05 50° 288° (WNW) 04:55:03 435.822/435.867
PCSat 16 Dec 04:46:47 04:51:56 45° 249° (WSW) 04:57:03 145.827
BEESAT 2 16 Dec 04:52:20 04:54:31 14° 48° (NE) 04:56:42 435.950
NO-84 16 Dec 05:02:27 05:04:02 14° 123° (ESE) 05:05:39 435.350 FM
YUBILEINY 16 Dec 05:12:06 05:18:08 20° 293° (WNW) 05:24:12 435.215
STARS 16 Dec 05:13:40 05:17:50 44° 73° (ENE) 05:22:01 437.465
DOVE 4 16 Dec 05:14:34 05:18:58 67° 101° (E) 05:23:08 437.250
XW-2D 16 Dec 05:23:32 05:24:33 11° 92° (E) 05:25:33 145.860 - 145.880
AO-7 16 Dec 05:31:32 05:38:32 31° 300° (WNW) 05:45:33 .
M-CUBED/EXP-1 PRIME 16 Dec 05:32:34 05:34:25 12° 301° (WNW) 05:36:13 437.505
XW-2B 16 Dec 05:38:06 05:40:36 17° 94° (E) 05:43:06 145.730 - 145.750
AO-85 16 Dec 05:41:07 05:44:14 17° 49° (NE) 05:47:29 145.980
BEESAT 3 16 Dec 05:44:56 05:48:32 36° 246° (WSW) 05:52:04 437.485
XW-2F 16 Dec 05:48:21 05:51:18 21° 95° (E) 05:54:13 145.980 - 146.000
XW-2C 16 Dec 06:04:41 06:08:17 37° 98° (E) 06:11:51 145.795 - 145.815
KKS-1 16 Dec 06:13:43 06:16:07 14° 267° (W) 06:18:31 437.445
JUGNU 16 Dec 06:14:34 06:17:51 15° 187° (S) 06:21:09 437.505
CUTE-I 16 Dec 06:22:12 06:27:19 46° 100° (E) 06:32:23 437.470
HO-68 16 Dec 06:24:43 06:30:18 24° 95° (E) 06:35:50 435.675
BEESAT 2 16 Dec 06:28:38 06:32:30 48° 245° (WSW) 06:36:18 435.950
NO-84 16 Dec 06:38:18 06:40:56 29° 320° (NW) 06:43:45 435.350 FM
LilacSat-2 16 Dec 06:43:03 06:46:52 57° 285° (WNW) 06:50:39 437.200
CUBEBUG 2 16 Dec 06:43:11 06:45:42 15° 94° (E) 06:48:15 437.445
SEEDS 16 Dec 06:47:44 06:50:29 17° 94° (E) 06:53:12 437.485
STARS 16 Dec 06:52:09 06:54:21 14° 267° (W) 06:56:32 437.465
NUDT-PHONESAT 16 Dec 06:52:11 06:55:57 74° 283° (WNW) 06:59:40 437.300
XW-2D 16 Dec 06:55:15 06:58:52 41° 286° (WNW) 07:02:29 145.860 - 145.880
KAITUO 1B 16 Dec 06:59:00 07:02:43 55° 284° (WNW) 07:06:24 145.475/437.950
O/OREOS (USA 219) 16 Dec 06:59:46 07:00:58 11° 98° (E) 07:02:09 437.305
STRAND 1 16 Dec 07:02:31 07:07:37 75° 75° (ENE) 07:12:44 437.568
SRMSAT 16 Dec 07:04:43 07:08:17 16° 175° (S) 07:11:53 437.500
XW-2B 16 Dec 07:11:28 07:14:46 27° 288° (WNW) 07:18:02 145.730 - 145.750
CUTE 1.7 + AOD 2 16 Dec 07:12:47 07:17:02 60° 100° (E) 07:21:14 437.475
AO-85 16 Dec 07:20:08 07:25:00 64° 243° (WSW) 07:30:10 145.980
FO-29 16 Dec 07:21:45 07:28:56 44° 69° (ENE) 07:36:13 435.910
XW-2F 16 Dec 07:22:18 07:25:16 21° 289° (WNW) 07:28:13 145.980 - 146.000
AO-73 16 Dec 07:33:45 07:36:04 14° 93° (E) 07:38:24 145.935
XW-2C 16 Dec 07:40:20 07:42:04 13° 292° (WNW) 07:43:48 145.795 - 145.815
CUTE-I 16 Dec 08:03:14 08:06:58 20° 295° (WNW) 08:10:41 437.470
HO-68 16 Dec 08:11:21 08:18:18 56° 290° (WNW) 08:25:13 435.675
UWE-3 16 Dec 08:14:06 08:18:28 83° 283° (WNW) 08:22:57 435.000/436.395/437.385
CUBEBUG 2 16 Dec 08:18:23 08:22:24 39° 286° (WNW) 08:26:31 437.445
SEEDS 16 Dec 08:22:23 08:26:13 33° 288° (WNW) 08:29:59 437.485
XW-2A 16 Dec 08:33:31 08:36:50 47° 285° (WNW) 08:40:08 145.665 - 145.685
ZACube-1 16 Dec 08:35:12 08:39:37 87° 108° (ESE) 08:44:06 437.345
O/OREOS (USA 219) 16 Dec 08:35:16 08:39:47 58° 292° (WNW) 08:44:18 437.305
AAUSAT CUBESAT 2 16 Dec 08:35:40 08:39:44 56° 284° (WNW) 08:43:46 437.432
STRAND 1 16 Dec 08:46:32 08:47:15 10° 269° (W) 08:47:57 437.568
CUTE 1.7 + AOD 2 16 Dec 08:51:31 08:52:17 10° 295° (WNW) 08:53:03 437.475
Oscar 11 16 Dec 08:51:54 08:56:16 74° 101° (E) 09:00:37 .
SRMSAT 16 Dec 08:53:06 08:56:43 16° 185° (S) 09:00:20 437.500
TIGRISAT 16 Dec 08:57:12 09:01:00 31° 72° (ENE) 09:04:46 435.000
UNISAT 6 16 Dec 09:00:46 09:04:45 38° 73° (ENE) 09:08:43 437.425
FO-29 16 Dec 09:06:53 09:13:51 37° 264° (W) 09:21:00 435.910
AO-73 16 Dec 09:08:15 09:12:26 44° 286° (WNW) 09:16:41 145.935
PRISM 16 Dec 09:09:12 09:11:05 13° 66° (ENE) 09:12:58 437.425
Max Valier Satellite 16 Dec 09:10:39 09:12:02 12° 93° (E) 09:13:24 145.860
DELFI C3 16 Dec 09:21:12 09:24:31 26° 96° (E) 09:27:48 145.870
EO-88 16 Dec 09:33:39 09:35:53 15° 94° (E) 09:38:05 145.990 - 145.960
nSIGHT-1 16 Dec 09:58:03 10:00:50 27° 131° (SE) 10:03:38 .
TIGRISAT 16 Dec 10:34:48 10:37:43 18° 265° (W) 10:40:37 435.000
NANOSAT C BR1 16 Dec 10:37:27 10:39:17 13° 66° (ENE) 10:41:05 145.865
UNISAT 6 16 Dec 10:39:11 10:41:35 15° 267° (W) 10:43:58 437.425
PRISM 16 Dec 10:41:55 10:45:54 45° 260° (W) 10:49:55 437.425
Max Valier Satellite 16 Dec 10:42:30 10:45:57 36° 286° (WNW) 10:49:22 145.860
SRMSAT 16 Dec 10:44:06 10:45:06 10° 195° (SSW) 10:46:07 437.500
ISS 16 Dec 10:46:05 10:49:21 76° 136° (SE) 10:52:39 437.550
EO-79 16 Dec 10:52:28 10:55:41 22° 70° (ENE) 10:58:55 145.935-145.965
DELFI C3 16 Dec 10:56:17 10:59:02 18° 291° (WNW) 11:01:46 145.870
AIST 2D 16 Dec 11:01:44 11:05:13 78° 258° (WSW) 11:08:45 435.315
EO-88 16 Dec 11:06:23 11:09:30 26° 288° (WNW) 11:12:35 145.990 - 145.960
POLYITAN 1 16 Dec 11:15:12 11:19:06 40° 73° (ENE) 11:23:01 437.675
ESTCUBE 1 16 Dec 11:15:42 11:19:37 28° 97° (E) 11:23:30 437.505/2401.250
LO-87 16 Dec 11:30:25 11:33:55 59° 100° (E) 11:37:25 145.935 - 145.965
nSIGHT-1 16 Dec 11:34:19 11:37:01 24° 327° (NNW) 11:39:43 .
QB50P2 16 Dec 11:40:44 11:44:56 84° 258° (WSW) 11:49:09 145.880/145.840
DUCHIFAT 1 16 Dec 11:42:49 11:46:55 67° 76° (ENE) 11:51:04 145.980
NANOSAT C BR1 16 Dec 12:10:32 12:14:32 46° 260° (W) 12:18:33 145.865
BUGSAT 1 16 Dec 12:16:18 12:19:57 33° 72° (ENE) 12:23:35 437.445
Gurwin Techsat 1B 16 Dec 12:23:37 12:27:25 20° 66° (ENE) 12:31:13 435.225
ISS 16 Dec 12:24:20 12:26:11 14° 333° (NNW) 12:28:03 437.550
EO-79 16 Dec 12:27:49 12:31:17 25° 264° (W) 12:34:46 145.935-145.965
VELOX 1 16 Dec 12:40:43 12:44:40 32° 98° (E) 12:48:34 145.980
AO-7 16 Dec 12:48:47 12:50:38 11° 48° (NE) 12:52:28 .
ESTCUBE 1 16 Dec 12:52:39 12:56:14 23° 291° (WNW) 12:59:48 437.505/2401.250
POLYITAN 1 16 Dec 12:52:57 12:55:01 13° 267° (W) 12:57:05 437.675
Oscar 19 16 Dec 13:04:10 13:09:16 70° 74° (ENE) 13:14:24 437.125/150
SPROUT 16 Dec 13:06:11 13:10:24 67° 284° (WNW) 13:14:35 437.525
AO-91 16 Dec 13:10:25 13:15:22 81° 76° (ENE) 13:19:51 145.960
NO-84 16 Dec 13:12:06 13:15:37 35° 42° (NE) 13:19:20 435.350 FM
YUBILEINY 16 Dec 13:26:15 13:34:00 33° 73° (ENE) 13:41:38 435.215
DX 1 16 Dec 13:30:38 13:34:03 23° 96° (E) 13:37:28 434.975-435.025
50 SAT 16 Dec 13:36:29 13:39:02 23° 97° (E) 13:41:35 437.505
BUGSAT 1 16 Dec 13:53:01 13:55:22 15° 266° (W) 13:57:42 437.445
RS-15 16 Dec 13:55:24 14:07:13 57° 111° (ESE) 14:19:02 29.354- 29.394
Gurwin Techsat 1B 16 Dec 14:01:55 14:06:58 45° 261° (W) 14:12:05 435.225
VELOX 1 16 Dec 14:17:42 14:20:51 19° 292° (WNW) 14:23:58 145.980
ITAMSAT 1 16 Dec 14:22:14 14:25:58 20° 66° (ENE) 14:29:42 435.822/435.867
AO-7 16 Dec 14:33:33 14:41:37 59° 67° (ENE) 14:49:44 .
M-CUBED/EXP-1 PRIME 16 Dec 14:38:05 14:42:11 43° 68° (ENE) 14:46:31 437.505
SO-50 16 Dec 14:39:32 14:43:45 44° 115° (ESE) 14:48:01 436.795
UKube-1 16 Dec 14:45:53 14:50:11 76° 285° (WNW) 14:54:27 .
Oscar 19 16 Dec 14:47:27 14:49:01 11° 269° (W) 14:50:34 437.125/150
NO-84 16 Dec 14:49:36 14:52:47 23° 234° (SW) 14:56:05 435.350 FM
MOZHAYETS 4 16 Dec 14:54:41 14:58:35 26° 96° (E) 15:02:29
DX 1 16 Dec 15:06:32 15:10:09 26° 290° (WNW) 15:13:44 434.975-435.025
50 SAT 16 Dec 15:09:18 15:10:43 12° 291° (WNW) 15:12:06 437.505
YUBILEINY 16 Dec 15:22:38 15:30:56 48° 271° (W) 15:39:10 435.215
BEESAT 16 Dec 15:33:06 15:37:40 45° 99° (E) 15:42:13 436.000
ITAMSAT 1 16 Dec 16:00:07 16:05:05 43° 261° (W) 16:10:02 435.822/435.867
ITUPSAT 1 16 Dec 16:02:42 16:07:30 87° 280° (W) 16:12:17 437.325
M-CUBED/EXP-1 PRIME 16 Dec 16:14:11 16:16:44 15° 263° (W) 16:19:23 437.505
